Location: Cahas Mountain Overlook
(37.0833°N, 80.1000°W)
Time: 01:58:02
(UTC-05:00)

A-11 Canister half - Pass Details

Date: 04 December 2023
Orbit: 1512 x 1687 km, 47.2° (Epoch: 01 March)

Event Time Altitude Azimuth Distance (km) Brightness Sun altitude
Exits shadow 03:28:14 41° 30° (NNE) 2,244 9.8 -45.1°
Drops below altitude 10° 03:35:32 10° 69° (ENE) 3,936 11.7 -43.6°
Sets 03:38:56 0° 75° (ENE) 4,935 12.4 -43.0°
